| time (UTC) | temp F | wind direction | speed MPH | gust MPH | rain 1hr in | rain 24hr in | rain mn in | humidity % | barometer mb |
| 20260504082003 | 70 | 208 | 4.0 | 8.0 | 0.00 | 0.00 | 0.00 | 50 | 1005.4 |
| 20260504081510 | 70 | 211 | 4.0 | 8.0 | 0.00 | 0.00 | 0.00 | 50 | 1005.4 |
| 20260504081003 | 70 | 222 | 4.0 | 8.0 | 0.00 | 0.00 | 0.00 | 50 | 1005.2 |
| 20260504080510 | 69 | 226 | 3.0 | 6.0 | 0.00 | 0.00 | 0.00 | 50 | 1005.2 |
| 20260504050003 | 63 | 204 | 4.0 | 8.0 | 0.00 | 0.00 | 0.00 | 52 | 1004.8 |
| 20260504045511 | 64 | 210 | 4.0 | 8.0 | 0.00 | 0.00 | 0.00 | 53 | 1004.6 |
| 20260504045004 | 62 | 195 | 4.0 | 7.0 | 0.00 | 0.00 | 0.00 | 56 | 1004.6 |
| 20260504044511 | 60 | 190 | 3.0 | 7.0 | 0.00 | 0.00 | 0.00 | 57 | 1004.7 |
| 20260504044003 | 58 | 192 | 3.0 | 6.0 | 0.00 | 0.00 | 0.00 | 58 | 1004.6 |
| 20260504043511 | 57 | 193 | 3.0 | 8.0 | 0.00 | 0.00 | 0.00 | 58 | 1004.6 |
| 20260504043003 | 57 | 197 | 3.0 | 8.0 | 0.00 | 0.00 | 0.00 | 58 | 1004.5 |
| 20260504042510 | 56 | 197 | 3.0 | 8.0 | 0.00 | 0.00 | 0.00 | 58 | 1004.4 |
| 20260504042003 | 56 | 195 | 3.0 | 7.0 | 0.00 | 0.00 | 0.00 | 58 | 1004.4 |
| 20260504041511 | 56 | 195 | 3.0 | 7.0 | 0.00 | 0.00 | 0.00 | 58 | 1004.4 |
| 20260504041004 | 56 | 189 | 4.0 | 6.0 | 0.00 | 0.00 | 0.00 | 58 | 1004.4 |
| 20260504040510 | 55 | 190 | 4.0 | 7.0 | 0.00 | 0.00 | 0.00 | 58 | 1004.4 |
| 20260504040004 | 55 | 190 | 3.0 | 8.0 | 0.00 | 0.00 | 0.00 | 58 | 1004.3 |
| 20260504035511 | 55 | 192 | 4.0 | 8.0 | 0.00 | 0.00 | 0.00 | 58 | 1004.2 |
| 20260504035003 | 56 | 201 | 4.0 | 8.0 | 0.00 | 0.00 | 0.00 | 58 | 1004.2 |
| 20260504034511 | 55 | 196 | 4.0 | 8.0 | 0.00 | 0.00 | 0.00 | 58 | 1004.2 |
| 20260504034003 | 55 | 188 | 4.0 | 8.0 | 0.00 | 0.00 | 0.00 | 57 | 1004.3 |
| 20260504033511 | 55 | 188 | 4.0 | 8.0 | 0.00 | 0.00 | 0.00 | 57 | 1004.2 |
| 20260504033003 | 55 | 184 | 4.0 | 9.0 | 0.00 | 0.00 | 0.00 | 57 | 1004.1 |
| 20260504032511 | 55 | 178 | 5.0 | 9.0 | 0.00 | 0.00 | 0.00 | 57 | 1004.1 |
| 20260504032003 | 55 | 188 | 4.0 | 9.0 | 0.00 | 0.00 | 0.00 | 57 | 1004.3 |
| 20260504031511 | 56 | 193 | 4.0 | 8.0 | 0.00 | 0.00 | 0.00 | 57 | 1004.2 |
| 20260504031003 | 56 | 184 | 3.0 | 7.0 | 0.00 | 0.00 | 0.00 | 56 | 1004.3 |
| 20260504030511 | 56 | 189 | 4.0 | 8.0 | 0.00 | 0.00 | 0.00 | 56 | 1004.4 |
| 20260504030003 | 56 | 192 | 5.0 | 8.0 | 0.00 | 0.00 | 0.00 | 56 | 1004.1 |
| 20260504025510 | 56 | 191 | 5.0 | 8.0 | 0.00 | 0.00 | 0.00 | 56 | 1004.1 |
| 20260504025003 | 56 | 186 | 5.0 | 8.0 | 0.00 | 0.00 | 0.00 | 55 | 1004.1 |
| 20260504024510 | 56 | 190 | 5.0 | 11.0 | 0.00 | 0.00 | 0.00 | 54 | 1004.0 |
| 20260504024004 | 56 | 196 | 5.0 | 11.0 | 0.00 | 0.00 | 0.00 | 54 | 1004.0 |
| 20260504023511 | 57 | 195 | 5.0 | 9.0 | 0.00 | 0.00 | 0.00 | 54 | 1004.1 |
| 20260504023011 | 57 | 189 | 4.0 | 8.0 | 0.00 | 0.00 | 0.00 | 53 | 1004.3 |
| 20260504022503 | 57 | 181 | 4.0 | 8.0 | 0.00 | 0.00 | 0.00 | 53 | 1004.4 |
| 20260504022012 | 57 | 189 | 4.0 | 8.0 | 0.00 | 0.00 | 0.00 | 52 | 1004.4 |
| 20260504021504 | 58 | 206 | 4.0 | 8.0 | 0.00 | 0.00 | 0.00 | 52 | 1004.3 |
| 20260504021011 | 58 | 222 | 4.0 | 8.0 | 0.00 | 0.00 | 0.00 | 52 | 1004.4 |
| 20260504020510 | 58 | 216 | 4.0 | 8.0 | 0.00 | 0.00 | 0.00 | 51 | 1004.4 |
| 20260504020003 | 58 | 197 | 4.0 | 8.0 | 0.00 | 0.00 | 0.00 | 51 | 1004.4 |
| 20260504015510 | 58 | 195 | 4.0 | 8.0 | 0.00 | 0.00 | 0.00 | 51 | 1004.2 |
| 20260504015004 | 58 | 213 | 4.0 | 8.0 | 0.00 | 0.00 | 0.00 | 51 | 1004.3 |
| 20260504014511 | 58 | 212 | 4.0 | 8.0 | 0.00 | 0.00 | 0.00 | 51 | 1004.2 |
| 20260504014003 | 58 | 191 | 4.0 | 9.0 | 0.00 | 0.00 | 0.00 | 50 | 1004.2 |
| 20260504013510 | 59 | 186 | 5.0 | 10.0 | 0.00 | 0.00 | 0.00 | 50 | 1004.2 |
| 20260504013003 | 59 | 187 | 5.0 | 10.0 | 0.00 | 0.00 | 0.00 | 50 | 1004.2 |
| 20260504012510 | 59 | 191 | 5.0 | 10.0 | 0.00 | 0.00 | 0.00 | 50 | 1004.3 |
| 20260504012004 | 59 | 195 | 5.0 | 9.0 | 0.00 | 0.00 | 0.00 | 50 | 1004.2 |
| 20260504011510 | 59 | 186 | 5.0 | 8.0 | 0.00 | 0.00 | 0.00 | 50 | 1004.2 |
| 20260504011004 | 59 | 181 | 6.0 | 8.0 | 0.00 | 0.00 | 0.00 | 50 | 1004.0 |
| 20260504010511 | 59 | 183 | 5.0 | 11.0 | 0.00 | 0.00 | 0.00 | 49 | 1004.1 |
| 20260504010003 | 59 | 195 | 5.0 | 11.0 | 0.00 | 0.00 | 0.00 | 49 | 1003.9 |
| 20260504005512 | 59 | 196 | 5.0 | 11.0 | 0.00 | 0.00 | 0.00 | 49 | 1004.0 |
| 20260504005004 | 60 | 189 | 6.0 | 11.0 | 0.00 | 0.00 | 0.00 | 48 | 1004.1 |
| 20260504004510 | 60 | 188 | 6.0 | 11.0 | 0.00 | 0.00 | 0.00 | 48 | 1004.0 |
| 20260504004011 | 60 | 190 | 6.0 | 11.0 | 0.00 | 0.00 | 0.00 | 48 | 1004.3 |
| 20260504003504 | 60 | 194 | 6.0 | 11.0 | 0.00 | 0.00 | 0.00 | 48 | 1004.2 |
| 20260504003011 | 62 | 188 | 6.0 | 11.0 | 0.00 | 0.00 | 0.00 | 48 | 1004.1 |
| 20260504002503 | 60 | 185 | 6.0 | 10.0 | 0.00 | 0.00 | 0.00 | 47 | 1004.0 |
| 20260504002012 | 60 | 185 | 6.0 | 9.0 | 0.00 | 0.00 | 0.00 | 47 | 1004.2 |
| 20260504001504 | 61 | 181 | 6.0 | 9.0 | 0.00 | 0.00 | 0.00 | 47 | 1004.1 |
| 20260504001010 | 61 | 181 | 6.0 | 9.0 | 0.00 | 0.00 | 0.00 | 46 | 1004.0 |
| 20260504000503 | 61 | 182 | 6.0 | 10.0 | 0.00 | 0.00 | 0.00 | 46 | 1004.0 |
| 20260504000011 | 61 | 183 | 6.0 | 11.0 | 0.00 | 0.00 | 0.00 | 46 | 1004.2 |
| 20260503235504 | 61 | 178 | 6.0 | 11.0 | 0.00 | 0.00 | 0.00 | 45 | 1004.0 |
| 20260503235011 | 60 | 185 | 7.0 | 11.0 | 0.00 | 0.00 | 0.00 | 45 | 1004.1 |
| 20260503234504 | 62 | 201 | 7.0 | 13.0 | 0.00 | 0.00 | 0.00 | 45 | 1004.1 |
| 20260503234011 | 62 | 204 | 6.0 | 13.0 | 0.00 | 0.00 | 0.00 | 44 | 1004.2 |
| 20260503233504 | 62 | 199 | 6.0 | 12.0 | 0.00 | 0.00 | 0.00 | 44 | 1004.2 |
| 20260503233010 | 62 | 192 | 6.0 | 11.0 | 0.00 | 0.00 | 0.00 | 44 | 1004.3 |
| 20260503232503 | 62 | 181 | 7.0 | 13.0 | 0.00 | 0.00 | 0.00 | 44 | 1004.2 |
| 20260503232012 | 62 | 188 | 6.0 | 13.0 | 0.00 | 0.00 | 0.00 | 44 | 1004.2 |
| 20260503231504 | 62 | 194 | 6.0 | 11.0 | 0.00 | 0.00 | 0.00 | 43 | 1004.3 |
| 20260503231011 | 62 | 186 | 6.0 | 10.0 | 0.00 | 0.00 | 0.00 | 43 | 1004.3 |
| 20260503230504 | 63 | 188 | 6.0 | 11.0 | 0.00 | 0.00 | 0.00 | 42 | 1004.2 |
| 20260503225959 | 63 | 193 | 6.0 | 11.0 | 0.00 | 0.00 | 0.00 | 42 | 1004.3 |
| 20260503225452 | 63 | 198 | 5.0 | 10.0 | 0.00 | 0.00 | 0.00 | 42 | 1004.3 |
| 20260503224958 | 63 | 202 | 6.0 | 11.0 | 0.00 | 0.00 | 0.00 | 42 | 1004.4 |
| 20260503224453 | 63 | 188 | 6.0 | 11.0 | 0.00 | 0.00 | 0.00 | 42 | 1004.2 |
| 20260503223958 | 64 | 185 | 6.0 | 11.0 | 0.00 | 0.00 | 0.00 | 41 | 1004.3 |
| 20260503223451 | 64 | 185 | 6.0 | 11.0 | 0.00 | 0.00 | 0.00 | 41 | 1004.3 |
| 20260503222958 | 64 | 179 | 5.0 | 10.0 | 0.00 | 0.00 | 0.00 | 41 | 1004.3 |
| 20260503222452 | 64 | 186 | 5.0 | 10.0 | 0.00 | 0.00 | 0.00 | 40 | 1004.2 |
| 20260503221959 | 64 | 192 | 5.0 | 10.0 | 0.00 | 0.00 | 0.00 | 40 | 1004.2 |
| 20260503221451 | 64 | 192 | 5.0 | 11.0 | 0.00 | 0.00 | 0.00 | 40 | 1004.3 |
| 20260503220958 | 64 | 187 | 5.0 | 11.0 | 0.00 | 0.00 | 0.00 | 39 | 1004.2 |
| 20260503220451 | 64 | 181 | 5.0 | 11.0 | 0.00 | 0.00 | 0.00 | 39 | 1004.3 |
| 20260503215958 | 64 | 179 | 6.0 | 11.0 | 0.00 | 0.00 | 0.00 | 39 | 1004.3 |
| 20260503215451 | 64 | 181 | 6.0 | 11.0 | 0.00 | 0.00 | 0.00 | 39 | 1004.4 |
| 20260503214959 | 64 | 182 | 5.0 | 11.0 | 0.00 | 0.00 | 0.00 | 39 | 1004.3 |
| 20260503214451 | 64 | 189 | 4.0 | 11.0 | 0.00 | 0.00 | 0.00 | 39 | 1004.3 |
| 20260503214000 | 64 | 194 | 4.0 | 9.0 | 0.00 | 0.00 | 0.00 | 39 | 1004.4 |
| 20260503213452 | 64 | 188 | 3.0 | 7.0 | 0.00 | 0.00 | 0.00 | 38 | 1004.4 |
| 20260503213000 | 64 | 179 | 3.0 | 7.0 | 0.00 | 0.00 | 0.00 | 38 | 1004.3 |
| 20260503212452 | 64 | 176 | 4.0 | 8.0 | 0.00 | 0.00 | 0.00 | 38 | 1004.3 |
| 20260503211959 | 64 | 187 | 4.0 | 8.0 | 0.00 | 0.00 | 0.00 | 38 | 1004.4 |
| 20260503211452 | 64 | 178 | 4.0 | 8.0 | 0.00 | 0.00 | 0.00 | 38 | 1004.6 |
| 20260503210959 | 64 | 146 | 4.0 | 8.0 | 0.00 | 0.00 | 0.00 | 38 | 1004.4 |
| 20260503210452 | 65 | 159 | 4.0 | 7.0 | 0.00 | 0.00 | 0.00 | 37 | 1004.5 |
| 20260503205959 | 63 | 179 | 4.0 | 7.0 | 0.00 | 0.00 | 0.00 | 37 | 1004.6 |
| 20260503205459 | 65 | 169 | 4.0 | 8.0 | 0.00 | 0.00 | 0.00 | 37 | 1004.4 |
| 20260503204952 | 65 | 163 | 4.0 | 8.0 | 0.00 | 0.00 | 0.00 | 37 | 1004.6 |
| 20260503204459 | 65 | 167 | 4.0 | 8.0 | 0.00 | 0.00 | 0.00 | 37 | 1004.6 |
| 20260503203951 | 66 | 173 | 4.0 | 8.0 | 0.00 | 0.00 | 0.00 | 36 | 1004.6 |
| 20260503203458 | 66 | 176 | 3.0 | 8.0 | 0.00 | 0.00 | 0.00 | 36 | 1004.6 |
| 20260503202951 | 66 | 175 | 4.0 | 8.0 | 0.00 | 0.00 | 0.00 | 36 | 1004.6 |
| 20260503202459 | 66 | 178 | 4.0 | 8.0 | 0.00 | 0.00 | 0.00 | 36 | 1004.5 |
| 20260503201955 | 66 | 192 | 4.0 | 7.0 | 0.00 | 0.00 | 0.00 | 35 | 1004.6 |
| 20260503201455 | 67 | 187 | 4.0 | 9.0 | 0.00 | 0.00 | 0.00 | 35 | 1004.7 |
| 20260503200959 | 67 | 181 | 5.0 | 9.0 | 0.00 | 0.00 | 0.00 | 35 | 1004.5 |
| 20260503200452 | 67 | 178 | 5.0 | 9.0 | 0.00 | 0.00 | 0.00 | 35 | 1004.6 |
| 20260503195959 | 67 | 182 | 4.0 | 8.0 | 0.00 | 0.00 | 0.00 | 35 | 1004.6 |
| 20260503195451 | 67 | 184 | 4.0 | 8.0 | 0.00 | 0.00 | 0.00 | 35 | 1004.7 |
| 20260503194959 | 67 | 186 | 4.0 | 8.0 | 0.00 | 0.00 | 0.00 | 35 | 1004.6 |
| 20260503194452 | 67 | 186 | 4.0 | 8.0 | 0.00 | 0.00 | 0.00 | 35 | 1004.6 |
| 20260503193953 | 67 | 181 | 4.0 | 8.0 | 0.00 | 0.00 | 0.00 | 34 | 1004.7 |
| 20260503193459 | 67 | 182 | 4.0 | 8.0 | 0.00 | 0.00 | 0.00 | 35 | 1004.7 |
| 20260503192952 | 67 | 174 | 4.0 | 8.0 | 0.00 | 0.00 | 0.00 | 35 | 1004.7 |
| 20260503192500 | 67 | 171 | 3.0 | 7.0 | 0.00 | 0.00 | 0.00 | 34 | 1004.7 |
| 20260503191952 | 68 | 181 | 3.0 | 7.0 | 0.00 | 0.00 | 0.00 | 35 | 1004.8 |
| 20260503191459 | 68 | 195 | 3.0 | 8.0 | 0.00 | 0.00 | 0.00 | 34 | 1004.7 |
| 20260503190952 | 68 | 193 | 4.0 | 8.0 | 0.00 | 0.00 | 0.00 | 34 | 1004.6 |
| 20260503190459 | 69 | 176 | 4.0 | 7.0 | 0.00 | 0.00 | 0.00 | 33 | 1004.6 |
| 20260503190000 | 69 | 168 | 4.0 | 7.0 | 0.00 | 0.00 | 0.00 | 33 | 1004.6 |
| 20260503185452 | 69 | 172 | 3.0 | 7.0 | 0.00 | 0.00 | 0.00 | 33 | 1004.6 |
| 20260503185000 | 69 | 181 | 4.0 | 8.0 | 0.00 | 0.00 | 0.00 | 32 | 1004.7 |
| 20260503184452 | 70 | 183 | 4.0 | 8.0 | 0.00 | 0.00 | 0.00 | 32 | 1004.5 |
| 20260503183959 | 70 | 182 | 3.0 | 7.0 | 0.00 | 0.00 | 0.00 | 31 | 1004.6 |
| 20260503183451 | 71 | 175 | 3.0 | 7.0 | 0.00 | 0.00 | 0.00 | 31 | 1004.5 |
| 20260503182959 | 71 | 172 | 3.0 | 6.0 | 0.00 | 0.00 | 0.00 | 30 | 1004.4 |
| 20260503182452 | 71 | 175 | 2.0 | 6.0 | 0.00 | 0.00 | 0.00 | 30 | 1004.4 |
| 20260503182000 | 72 | 177 | 3.0 | 8.0 | 0.00 | 0.00 | 0.00 | 29 | 1004.4 |
| 20260503181452 | 72 | 177 | 4.0 | 8.0 | 0.00 | 0.00 | 0.00 | 29 | 1004.3 |
| 20260503181000 | 72 | 178 | 4.0 | 7.0 | 0.00 | 0.00 | 0.00 | 29 | 1004.3 |
| 20260503180452 | 73 | 170 | 4.0 | 10.0 | 0.00 | 0.00 | 0.00 | 28 | 1004.2 |
| 20260503180000 | 73 | 165 | 3.0 | 10.0 | 0.00 | 0.00 | 0.00 | 28 | 1004.1 |
| 20260503175452 | 73 | 182 | 3.0 | 8.0 | 0.00 | 0.00 | 0.00 | 28 | 1004.2 |
| 20260503174959 | 73 | 182 | 3.0 | 8.0 | 0.00 | 0.00 | 0.00 | 28 | 1004.3 |
| 20260503174452 | 74 | 178 | 3.0 | 8.0 | 0.00 | 0.00 | 0.00 | 28 | 1004.2 |
| 20260503173959 | 74 | 184 | 3.0 | 8.0 | 0.00 | 0.00 | 0.00 | 28 | 1004.3 |
| 20260503173452 | 74 | 178 | 4.0 | 8.0 | 0.00 | 0.00 | 0.00 | 28 | 1004.1 |
| 20260503172959 | 75 | 173 | 3.0 | 8.0 | 0.00 | 0.00 | 0.00 | 28 | 1004.1 |
| 20260503172452 | 75 | 178 | 3.0 | 8.0 | 0.00 | 0.00 | 0.00 | 29 | 1004.4 |
| 20260503172000 | 76 | 194 | 4.0 | 11.0 | 0.00 | 0.00 | 0.00 | 28 | 1004.3 |
| 20260503171452 | 76 | 195 | 5.0 | 11.0 | 0.00 | 0.00 | 0.00 | 28 | 1004.3 |
| 20260503170959 | 76 | 184 | 5.0 | 9.0 | 0.00 | 0.00 | 0.00 | 27 | 1004.1 |
| 20260503170452 | 77 | 186 | 5.0 | 10.0 | 0.00 | 0.00 | 0.00 | 27 | 1004.2 |
| 20260503150953 | 81 | 182 | 7.0 | 14.0 | 0.00 | 0.00 | 0.00 | 26 | 1004.7 |
| 20260503150500 | 82 | 184 | 8.0 | 17.0 | 0.00 | 0.00 | 0.00 | 26 | 1004.8 |
| 20260503131000 | 83 | 189 | 10.0 | 16.0 | 0.00 | 0.00 | 0.00 | 28 | 1006.1 |
| 20260503130452 | 82 | 195 | 9.0 | 15.0 | 0.00 | 0.00 | 0.00 | 28 | 1006.1 |
| 20260503110452 | 79 | 216 | 7.0 | 13.0 | 0.00 | 0.00 | 0.00 | 33 | 1007.1 |
| 20260503090452 | 73 | 207 | 8.0 | 15.0 | 0.00 | 0.00 | 0.00 | 38 | 1008.2 |